Location: Banksville Park
(38.5557°N, 75.1182°W)
Time: 07:05:26
(UTC+00:00)

MOS 1 Rocket - Pass Details

Date: 19 September 2020
Orbit: 613 x 831 km, 97.4° (Epoch: 19 October)

Event Time Altitude Azimuth Distance (km) Brightness Sun altitude
Rises 23:57:46 0° 14° (NNE) 2,990 6.5 -11.5°
Reaches altitude 10° 00:00:03 10° 17° (NNE) 2,048 5.7 -11.9°
Maximum altitude 00:04:27 67° 100° (E) 680 3.0 -12.7°
Drops below altitude 10° 00:08:42 10° 184° (S) 1,970 5.5 -13.6°
Sets 00:10:51 0° 187° (S) 2,865 6.4 -14.0°
